Location: Leo
(52.0556°N, 112.3605°W)
Time: 07:54:56
(UTC+00:00)

AO-109 - Visible Passes

Search period start: 02 December 2023 00:00
Search period end: 12 December 2023 00:00
Orbit: 390 x 421 km, 60.7° (Epoch: 01 December)

Date Brightness Start Highest point End Pass type
(mag) Time Alt. Az. Time Alt. Az. Time Alt. Az.
02 Dec ? 12:37:00 10° SSE 12:38:41 14° ESE 12:40:23 10° E visible
02 Dec ? 14:10:44 10° SW 14:13:55 82° NW 14:17:07 10° NE visible
03 Dec ? 13:20:11 14° SSW 13:22:42 51° SE 13:25:50 10° ENE visible
04 Dec ? 12:31:26 26° SE 12:31:27 26° SE 12:34:10 10° ENE visible
04 Dec ? 14:04:10 12° WSW 14:06:57 46° NNW 14:10:04 10° NE visible
05 Dec ? 13:14:56 66° WSW 13:15:19 83° NW 13:18:32 10° NE visible
06 Dec ? 12:25:20 23° ENE 12:25:20 23° ENE 12:26:43 10° ENE visible
06 Dec ? 13:58:01 21° WNW 13:59:22 30° NNW 14:02:17 10° NE visible
07 Dec ? 13:08:06 37° NNE 13:08:06 37° NNE 13:10:26 10° NE visible
07 Dec ? 14:41:10 10° WNW 14:43:33 19° N 14:45:57 10° NE visible
08 Dec ? 12:17:54 13° NE 12:17:54 13° NE 12:18:23 10° NE visible
08 Dec ? 13:50:33 22° NW 13:51:10 23° NNW 13:53:48 10° NE visible
09 Dec ? 13:00:07 21° NNE 13:00:07 21° NNE 13:01:35 10° NE visible
09 Dec ? 14:32:47 10° NW 14:35:03 18° N 14:37:19 10° NE visible
10 Dec ? 13:42:04 19° NNW 13:42:17 19° N 13:44:42 10° NE visible
11 Dec ? 12:51:11 15° NNE 12:51:11 15° NNE 12:52:04 10° NE visible
11 Dec ? 14:23:48 11° NW 14:25:51 18° N 14:28:07 10° NE visible
